This demonstration page uses our WeatherBlox Daily Observations layout. Learn more.

Left ArrowRight Arrow

53.62937, 11.41316

Hourly Observations for April 25, 2018

Temp ( °F °C ) Dew Point ( °F °C ) Humidity (%) Winds ( mph kmh ) Pressure ( in mb ) Visibility ( mi km ) Precip ( " mm )
6:50 am 06:50 Mostly Cloudy with Light Rain 52 11 52 11 100 100 S 10 17 29.56 1001 2 4 N/A
7:20 am 07:20 Mostly Cloudy with Light Rain 52 11 52 11 100 100 S 10 17 29.56 1001 2 4 N/A
7:50 am 07:50 Mostly Cloudy 54 12 54 12 100 100 S 12 19 29.56 1001 4 6 N/A
8:20 am 08:20 Mostly Cloudy 55 13 54 12 94 94 S 13 20 29.56 1001 4 6 N/A
8:50 am 08:50 Mostly Cloudy with Light Rain 55 13 54 12 94 94 SSW 14 22 29.56 1001 5 8 N/A
9:20 am 09:20 Partly Cloudy 55 13 54 12 94 94 SSW 16 26 29.53 1000 30 48 N/A
9:50 am 09:50 Partly Cloudy 57 14 54 12 88 88 SSW 14 22 29.53 1000 30 48 N/A
10:20 am 10:20 Partly Cloudy 59 15 52 11 77 77 SSW 21 33 29.53 1000 30 48 N/A
10:50 am 10:50 Mostly Cloudy 57 14 48 9 72 72 SSW 23 37 29.53 1000 30 48 N/A
11:20 am 11:20 Mostly Cloudy 57 14 48 9 72 72 SW 22 35 29.56 1001 30 48 N/A
11:50 am 11:50 Mostly Cloudy 57 14 46 8 67 67 SW 21 33 29.56 1001 30 48 N/A
12:20 pm 12:20 Mostly Cloudy 55 13 45 7 67 67 WSW 17 28 29.59 1002 30 48 N/A
12:50 pm 12:50 Mostly Cloudy 54 12 46 8 77 77 SW 18 30 29.59 1002 30 48 N/A
1:20 pm 13:20 Mostly Cloudy 52 11 48 9 88 88 SW 21 33 29.62 1003 30 48 N/A
1:50 pm 13:50 Mostly Cloudy 50 10 46 8 88 88 W 15 24 29.68 1005 30 48 N/A
2:20 pm 14:20 Mostly Cloudy 48 9 46 8 94 94 W 10 17 29.71 1006 30 48 N/A
2:50 pm 14:50 Mostly Cloudy 48 9 45 7 87 87 W 6 9 29.74 1007 30 48 N/A
3:20 pm 15:20 Mostly Cloudy 50 10 43 6 76 76 W 9 15 29.74 1007 30 48 N/A
3:50 pm 15:50 Mostly Cloudy 50 10 43 6 76 76 WSW 8 13 29.77 1008 30 48 N/A
4:20 pm 16:20 Mostly Cloudy 50 10 43 6 76 76 WSW 8 13 29.77 1008 30 48 N/A
4:50 pm 16:50 Mostly Cloudy 50 10 43 6 76 76 WSW 9 15 29.77 1008 30 48 N/A
5:20 pm 17:20 Mostly Cloudy 50 10 45 7 82 82 SW 8 13 29.80 1009 30 48 N/A
5:50 pm 17:50 Mostly Cloudy 50 10 45 7 82 82 SW 13 20 29.80 1009 30 48 N/A
6:20 pm 18:20 Mostly Cloudy 50 10 46 8 88 88 WSW 7 11 29.80 1009 30 48 N/A
6:50 pm 18:50 Mostly Cloudy 50 10 41 5 71 71 WSW 8 13 29.80 1009 30 48 N/A
7:20 pm 19:20 Mostly Sunny 50 10 43 6 76 76 WSW 8 13 29.80 1009 7 11 N/A
7:50 pm 19:50 Mostly Sunny 50 10 43 6 76 76 WSW 6 9 29.80 1009 7 11 N/A
8:20 pm 20:20 Mostly Cloudy 48 9 43 6 82 82 WSW 3 6 29.80 1009 30 48 N/A
8:50 pm 20:50 Partly Cloudy 46 8 43 6 87 87 SSW 3 6 29.80 1009 30 48 N/A

Powered by AerisWeather